IU1FIL-3 Weather Reports


Display with metric or nautical units.
time (UTC)temp
F
wind
direction
speed
MPH
gust
MPH
rain 1hr
in
rain 24hr
in
rain mn
in
humidity
%
barometer
mb
20260503193759 58 0.0 0.0 0.00 0.00 0.00 10 1020.0
20260503192757 58 0.0 0.0 0.00 0.00 0.00 10 1019.8
20260503191756 59 0.0 0.0 0.00 0.00 0.00 10 1019.7
20260503190754 59 0.0 0.0 0.00 0.00 0.00 10 1019.8
20260503185752 59 0.0 0.0 0.00 0.00 0.00 10 1019.7
20260503184750 59 0.0 0.0 0.00 0.00 0.00 10 1019.7
20260503183748 59 0.0 0.0 0.00 0.00 0.00 10 1019.7
20260503182746 59 0.0 0.0 0.00 0.00 0.00 10 1019.7
20260503181744 59 0.0 0.0 0.00 0.00 0.00 10 1019.6
20260503180742 59 0.0 0.0 0.00 0.00 0.00 10 1019.7
20260503175740 59 0.0 0.0 0.00 0.00 0.00 10 1019.7
20260503174738 60 0.0 0.0 0.00 0.00 0.00 10 1019.6
20260503173736 60 0.0 0.0 0.00 0.00 0.00 10 1019.6
20260503172734 61 0.0 0.0 0.00 0.00 0.00 10 1019.5
20260503171732 61 0.0 0.0 0.00 0.00 0.00 10 1019.5
20260503170730 62 0.0 0.0 0.00 0.00 0.00 10 1019.6
20260503150706 66 0.0 0.0 0.00 0.00 0.00 10 1019.3
20260503130644 67 0.0 0.0 0.00 0.00 0.00 10 1020.3
20260503110618 69 0.0 0.0 0.00 0.00 0.00 75 1020.8
20260503081547 61 0.0 0.0 0.00 0.00 0.00 10 1021.9
20260503080544 61 0.0 0.0 0.00 0.00 0.00 10 1021.9
20260503072537 59 0.0 0.0 0.00 0.00 0.00 10 1021.9
20260503071534 59 0.0 0.0 0.00 0.00 0.00 10 1022.0
20260503070533 59 0.0 0.0 0.00 0.00 0.00 10 1022.0
20260503054517 56 0.0 0.0 0.00 0.00 0.00 10 1021.9
20260503053515 56 0.0 0.0 0.00 0.00 0.00 10 1021.9
20260503052513 55 0.0 0.0 0.00 0.00 0.00 10 1022.0
20260503051512 54 0.0 0.0 0.00 0.00 0.00 10 1022.0
20260503050510 54 0.0 0.0 0.00 0.00 0.00 10 1022.0
20260503045508 53 0.0 0.0 0.00 0.00 0.00 10 1022.2
20260503044506 53 0.0 0.0 0.00 0.00 0.00 10 1022.2
20260503043504 52 0.0 0.0 0.00 0.00 0.00 10 1022.3
20260503042502 52 0.0 0.0 0.00 0.00 0.00 10 1022.2
20260503041500 52 0.0 0.0 0.00 0.00 0.00 10 1022.1
20260503040458 52 0.0 0.0 0.00 0.00 0.00 10 1022.2
20260503035456 52 0.0 0.0 0.00 0.00 0.00 10 1022.1
20260503034454 52 0.0 0.0 0.00 0.00 0.00 10 1022.2
20260503033452 52 0.0 0.0 0.00 0.00 0.00 10 1022.2
20260503032450 52 0.0 0.0 0.00 0.00 0.00 10 1022.1
20260503031448 53 0.0 0.0 0.00 0.00 0.00 10 1022.1
20260503030446 53 0.0 0.0 0.00 0.00 0.00 10 1022.1
20260503025444 53 0.0 0.0 0.00 0.00 0.00 10 1022.2
20260503024443 54 0.0 0.0 0.00 0.00 0.00 10 1022.1
20260503023440 53 0.0 0.0 0.00 0.00 0.00 10 1022.2
20260503022438 53 0.0 0.0 0.00 0.00 0.00 10 1022.3
20260503021437 53 0.0 0.0 0.00 0.00 0.00 10 1022.4
20260503020435 54 0.0 0.0 0.00 0.00 0.00 10 1022.3
20260503015433 55 0.0 0.0 0.00 0.00 0.00 10 1022.3
20260503014432 53 0.0 0.0 0.00 0.00 0.00 10 1022.4
20260503013430 53 0.0 0.0 0.00 0.00 0.00 10 1022.6
20260503012428 53 0.0 0.0 0.00 0.00 0.00 10 1022.6
20260503011426 53 0.0 0.0 0.00 0.00 0.00 10 1022.6
20260503010424 53 0.0 0.0 0.00 0.00 0.00 10 1022.7
20260503005421 54 0.0 0.0 0.00 0.00 0.00 10 1022.6
20260503004419 54 0.0 0.0 0.00 0.00 0.00 10 1022.6
20260503003417 54 0.0 0.0 0.00 0.00 0.00 10 1022.8
20260503002415 54 0.0 0.0 0.00 0.00 0.00 10 1022.9
20260503001413 54 0.0 0.0 0.00 0.00 0.00 10 1023.0
20260503000411 55 0.0 0.0 0.00 0.00 0.00 10 1022.9
20260502235410 54 0.0 0.0 0.00 0.00 0.00 10 1023.1
20260502234408 55 0.0 0.0 0.00 0.00 0.00 10 1023.1
20260502233406 55 0.0 0.0 0.00 0.00 0.00 10 1023.1
20260502232403 55 0.0 0.0 0.00 0.00 0.00 10 1023.1
20260502231402 55 0.0 0.0 0.00 0.00 0.00 10 1023.3
20260502230400 55 0.0 0.0 0.00 0.00 0.00 10 1023.3
20260502225358 55 0.0 0.0 0.00 0.00 0.00 10 1023.3
20260502224356 55 0.0 0.0 0.00 0.00 0.00 10 1023.3
20260502223354 55 0.0 0.0 0.00 0.00 0.00 10 1023.3
20260502222353 55 0.0 0.0 0.00 0.00 0.00 10 1023.3
20260502221352 55 0.0 0.0 0.00 0.00 0.00 10 1023.3
20260502220350 55 0.0 0.0 0.00 0.00 0.00 10 1023.4
20260502215806 56 0.0 0.0 0.00 0.00 0.00 10 1023.3
20260502214804 56 0.0 0.0 0.00 0.00 0.00 10 1023.3
20260502213802 56 0.0 0.0 0.00 0.00 0.00 10 1023.3
20260502212800 56 0.0 0.0 0.00 0.00 0.00 10 1023.3
20260502211757 57 0.0 0.0 0.00 0.00 0.00 10 1023.3
20260502210756 57 0.0 0.0 0.00 0.00 0.00 10 1023.3
20260502205754 57 0.0 0.0 0.00 0.00 0.00 10 1023.3
20260502204752 58 0.0 0.0 0.00 0.00 0.00 10 1023.3
20260502203750 58 0.0 0.0 0.00 0.00 0.00 10 1023.3
20260502202749 58 0.0 0.0 0.00 0.00 0.00 10 1023.3
20260502201747 59 0.0 0.0 0.00 0.00 0.00 10 1023.4
20260502200746 59 0.0 0.0 0.00 0.00 0.00 10 1023.4
20260502195744 58 0.0 0.0 0.00 0.00 0.00 10 1023.4
20260502194742 59 0.0 0.0 0.00 0.00 0.00 10 1023.4